TimeMDT,TemperatureF,Dew PointF,Humidity,Sea Level PressureIn,VisibilityMPH,Wind Direction,Wind SpeedMPH,Gust SpeedMPH,PrecipitationIn,Events,Conditions,WindDirDegrees,DateUTC
12:55 AM,53.1,46.0,77,30.00,10.0,WNW,3.5,-,N/A,,Clear,300,2013-09-15 06:55:00
1:55 AM,51.1,46.0,83,30.00,10.0,West,4.6,-,N/A,,Clear,260,2013-09-15 07:55:00
2:55 AM,51.1,44.1,77,30.00,10.0,Calm,Calm,-,N/A,,Clear,0,2013-09-15 08:55:00
3:55 AM,48.9,44.1,83,29.99,10.0,Calm,Calm,-,N/A,,Clear,0,2013-09-15 09:55:00
4:55 AM,46.0,43.0,89,29.99,10.0,Calm,Calm,-,N/A,,Clear,0,2013-09-15 10:55:00
5:55 AM,44.1,41.0,89,30.00,10.0,Calm,Calm,-,N/A,,Clear,0,2013-09-15 11:55:00
6:55 AM,46.9,43.0,86,30.01,10.0,North,4.6,-,N/A,,Clear,360,2013-09-15 12:55:00
7:55 AM,55.0,45.0,69,30.01,10.0,North,5.8,-,N/A,,Clear,360,2013-09-15 13:55:00
8:55 AM,63.0,46.9,56,29.98,10.0,NNE,9.2,-,N/A,,Clear,20,2013-09-15 14:55:00
9:55 AM,66.0,46.0,48,29.98,10.0,NNE,8.1,-,N/A,,Clear,20,2013-09-15 15:55:00
10:55 AM,70.0,45.0,41,29.97,10.0,North,3.5,-,N/A,,Clear,10,2013-09-15 16:55:00
11:55 AM,73.0,44.1,35,29.94,10.0,Calm,Calm,-,N/A,,Clear,0,2013-09-15 17:55:00
12:55 PM,77.0,44.1,31,29.92,10.0,SSW,3.5,-,N/A,,Clear,210,2013-09-15 18:55:00
1:55 PM,81.0,46.0,29,29.88,10.0,Calm,Calm,-,N/A,,Clear,0,2013-09-15 19:55:00
2:55 PM,82.0,46.0,28,29.85,10.0,Calm,Calm,-,N/A,,Clear,0,2013-09-15 20:55:00
3:55 PM,84.0,48.0,28,29.82,10.0,SSE,6.9,-,N/A,,Clear,150,2013-09-15 21:55:00
4:55 PM,84.9,46.9,27,29.79,10.0,SW,8.1,-,N/A,,Clear,220,2013-09-15 22:55:00
5:55 PM,84.0,48.9,29,29.79,10.0,SSE,5.8,-,N/A,,Clear,160,2013-09-15 23:55:00
6:55 PM,80.1,52.0,38,29.77,10.0,SSE,5.8,-,N/A,,Partly Cloudy,150,2013-09-16 00:55:00
7:55 PM,70.0,53.1,55,29.75,10.0,NW,3.5,-,N/A,,Partly Cloudy,320,2013-09-16 01:55:00
8:55 PM,66.0,54.0,65,29.74,10.0,Calm,Calm,-,N/A,,Clear,0,2013-09-16 02:55:00
9:55 PM,63.0,52.0,67,29.73,10.0,Calm,Calm,-,N/A,,Clear,0,2013-09-16 03:55:00
10:55 PM,61.0,51.1,70,29.73,10.0,Calm,Calm,-,N/A,,Clear,0,2013-09-16 04:55:00
11:55 PM,61.0,52.0,72,29.72,10.0,Calm,Calm,-,N/A,,Scattered Clouds,0,2013-09-16 05:55:00